TimeCDT,TemperatureF,Dew PointF,Humidity,Sea Level PressureIn,VisibilityMPH,Wind Direction,Wind SpeedMPH,Gust SpeedMPH,PrecipitationIn,Events,Conditions,WindDirDegrees,DateUTC
12:51 AM,42.1,39.0,89,29.86,10.0,SW,6.9,-,0.00,Rain,Light Rain,230,2013-05-04 05:51:00
2:51 AM,41.0,39.0,93,29.88,10.0,SSW,4.6,-,0.00,Rain,Light Rain,200,2013-05-04 07:51:00
3:51 AM,41.0,37.9,89,29.88,10.0,SSW,5.8,-,0.00,,Overcast,210,2013-05-04 08:51:00
4:51 AM,41.0,37.9,89,29.88,10.0,SSW,5.8,-,N/A,,Overcast,210,2013-05-04 09:51:00
5:51 AM,41.0,37.9,89,29.89,10.0,Calm,Calm,-,N/A,,Overcast,0,2013-05-04 10:51:00
5:58 AM,41.0,37.4,87,29.88,10.0,Calm,Calm,-,N/A,,Overcast,0,2013-05-04 10:58:00
6:42 AM,42.8,37.4,81,29.90,10.0,SSW,3.5,-,N/A,,Overcast,210,2013-05-04 11:42:00
6:51 AM,42.1,37.9,85,29.92,10.0,Calm,Calm,-,N/A,,Overcast,0,2013-05-04 11:51:00
6:59 AM,42.8,37.4,81,29.90,10.0,Calm,Calm,-,N/A,,Overcast,0,2013-05-04 11:59:00
7:23 AM,42.8,37.4,81,29.91,10.0,Calm,Calm,-,N/A,,Overcast,0,2013-05-04 12:23:00
7:51 AM,42.1,37.9,85,29.93,10.0,Calm,Calm,-,N/A,,Mostly Cloudy,0,2013-05-04 12:51:00
8:17 AM,42.8,37.4,81,29.92,10.0,Calm,Calm,-,N/A,,Mostly Cloudy,0,2013-05-04 13:17:00
8:51 AM,44.1,37.9,79,29.94,10.0,SSE,3.5,-,N/A,,Mostly Cloudy,160,2013-05-04 13:51:00
9:20 AM,44.6,37.4,76,29.92,10.0,SE,3.5,-,N/A,,Overcast,140,2013-05-04 14:20:00
9:51 AM,45.0,37.0,74,29.94,10.0,South,3.5,-,N/A,,Overcast,170,2013-05-04 14:51:00
10:51 AM,46.0,37.0,71,29.95,10.0,SE,4.6,-,N/A,,Overcast,140,2013-05-04 15:51:00
11:51 AM,46.0,37.9,73,29.95,10.0,East,3.5,-,N/A,,Overcast,100,2013-05-04 16:51:00
12:24 PM,46.4,39.2,76,29.94,4.0,ESE,4.6,-,0.00,,Light Drizzle,120,2013-05-04 17:24:00
12:51 PM,46.0,41.0,83,29.95,4.0,East,4.6,-,0.00,,Light Drizzle,100,2013-05-04 17:51:00
12:57 PM,46.4,41.0,81,29.94,5.0,SE,5.8,-,0.00,,Light Drizzle,130,2013-05-04 17:57:00
1:51 PM,46.9,42.1,83,29.96,8.0,ENE,6.9,-,0.00,,Light Drizzle,70,2013-05-04 18:51:00
2:17 PM,46.4,41.0,81,29.95,5.0,ESE,6.9,-,0.00,,Light Drizzle,110,2013-05-04 19:17:00
2:30 PM,46.4,42.8,87,29.94,7.0,East,8.1,-,0.00,,Light Drizzle,90,2013-05-04 19:30:00
2:51 PM,48.0,41.0,77,29.96,9.0,East,6.9,-,0.00,,Overcast,100,2013-05-04 19:51:00
3:51 PM,48.9,41.0,74,29.96,10.0,East,4.6,-,N/A,,Overcast,100,2013-05-04 20:51:00
4:51 PM,50.0,42.1,74,29.97,10.0,East,6.9,-,N/A,,Overcast,80,2013-05-04 21:51:00
4:58 PM,50.0,41.0,71,29.95,10.0,ENE,6.9,-,N/A,,Overcast,70,2013-05-04 21:58:00
5:51 PM,50.0,39.9,68,29.96,10.0,East,3.5,-,N/A,,Overcast,90,2013-05-04 22:51:00
6:51 PM,50.0,42.1,74,29.98,10.0,ENE,9.2,-,N/A,,Overcast,70,2013-05-04 23:51:00
7:51 PM,48.9,42.1,77,29.99,10.0,NE,5.8,-,N/A,,Overcast,50,2013-05-05 00:51:00
8:51 PM,48.0,42.1,80,30.02,10.0,ENE,5.8,-,N/A,,Overcast,70,2013-05-05 01:51:00
9:51 PM,48.0,43.0,83,30.03,10.0,NE,5.8,-,N/A,,Overcast,50,2013-05-05 02:51:00
10:51 PM,48.0,43.0,83,30.02,10.0,Calm,Calm,-,N/A,,Mostly Cloudy,0,2013-05-05 03:51:00
11:51 PM,46.9,43.0,86,30.01,10.0,North,3.5,-,N/A,,Mostly Cloudy,350,2013-05-05 04:51:00